[[{"header":{"parameterUnit":"m.s-1","parameterCategory":1,"la1":30.2991,"la2":30.254,"lo1":-89.0895,"lo2":-89.0444,"dy":0.0017,"dx":0.0017,"nx":28,"ny":28,"refTime":"2025-12-23T03:00:00:Z","depth":0,"parameterNumber":2,"parameterNumberName":"U-component_of_WINDS"},"data":[0,0,0,0,0,0,0,0,0,0,0,0,0,0,0,0,0,0,0,0,0,0,0,0,0,0,0,0,0,0,0,0,0,0,0,0,0,0,0,0,0,0,0,0,0,0,0,0,0,0,0,0,0,0,0,0,0,0,-3.7613,-3.7614,0,-3.7665,-3.7666,-3.7666,-3.7622,-3.7621,-3.7619,-3.7617,-3.7671,-3.7674,-3.7677,0,0,0,0,0,0,0,0,0,0,0,0,0,-3.7477,-3.748,-3.7613,-3.7614,-3.7615,-3.7665,-3.7666,-3.7666,-3.7623,-3.762,-3.7618,-3.7616,-3.767,-3.7673,-3.7677,0,0,0,0,0,0,0,0,0,0,0,0,0,-3.7533,-3.7481,-3.7613,-3.7599,-3.7598,-3.7665,-3.7666,-3.7667,-3.7623,-3.762,-3.7618,-3.7615,-3.7668,-3.7673,-3.7678,-3.7761,0,0,-3.7692,-3.7694,0,0,0,0,0,0,0,0,-3.753,-3.7538,-3.76,-3.76,-3.7599,-3.7634,-3.7637,-3.7698,-3.7624,-3.7614,-3.7617,-3.7614,-3.7661,-3.7666,-3.7682,-3.7764,-3.7766,-3.7692,-3.7695,-3.7697,-3.7699,0,0,0,0,0,0,0,-3.7526,-3.7536,-3.7634,-3.7601,-3.7601,-3.759,-3.7595,-3.7649,-3.7652,-3.7614,-3.7611,-3.7618,-3.766,-3.7677,-3.7683,-3.7767,-3.7692,-3.7696,-3.7699,-3.7701,-3.792,-3.7923,0,0,0,0,0,0,-3.7524,-3.7533,-3.7632,-3.7635,-3.7557,-3.7595,-3.76,-3.7626,-3.7651,-3.7653,-3.762,-3.7616,-3.7671,-3.7677,-3.7684,-3.7784,-3.7697,-3.7702,-3.7704,-3.7917,-3.7921,-3.7924,0,0,0,0,0,0,-3.7521,-3.7533,-3.763,-3.7583,-3.7595,-3.76,-3.7629,-3.7628,-3.7646,-3.7656,-3.7656,-3.7637,-3.7669,-3.7678,-3.7742,-3.7785,-3.7704,-3.7708,-3.7914,-3.7918,-3.7923,-3.7984,0,0,0,0,0,0,-3.7517,-3.7532,-3.7564,-3.7584,-3.7598,-3.7687,-3.7632,-3.7631,-3.7654,-3.7648,-3.7672,-3.7673,-3.7667,-3.7736,-3.7747,-3.779,-3.7712,-3.791,-3.7916,-3.7921,-3.7978,-3.799,-3.8,0,0,0,0,0,-3.7513,-3.7579,-3.7566,-3.7578,-3.7637,-3.769,-3.7697,-3.7689,-3.7657,-3.7689,-3.7696,-3.7672,-3.7779,-3.7743,-3.7755,-3.78,-3.7907,-3.7914,-3.7921,-3.7973,-3.7987,-3.8,0,0,0,0,0,0,-3.7564,-3.7582,-3.7567,-3.7642,-3.7665,-3.7682,-3.7722,-3.7705,-3.7737,-3.773,-3.7719,-3.7725,-3.7793,-3.7803,-3.7763,-3.7883,-3.7838,-3.7848,-3.7873,-3.7887,-3.7898,-3.7894,-3.7716,0,0,0,0,0,-3.7584,-3.7625,-3.7639,-3.7704,-3.7716,-3.7717,-3.774,-3.7732,-3.7755,-3.7764,-3.7775,-3.7799,-3.7837,-3.7863,-3.7899,-3.7979,-3.7984,-3.8016,-3.8027,-3.8036,-3.8045,-3.8088,-3.8102,-3.7946,-3.7946,-3.7946,0,0,-3.7626,-3.7641,-3.7668,-3.7715,-3.7731,-3.7774,-3.7726,-3.7773,-3.7804,-3.7771,-3.7833,-3.7842,-3.7867,-3.794,-3.7973,-3.7951,-3.8089,-3.8045,-3.8052,-3.8055,-3.8096,-3.8111,-3.8124,-3.7951,-3.795,-3.7949,0,0,-3.7725,-3.774,-3.7796,-3.7813,-3.7839,-3.7839,-3.7853,-3.7873,-3.7878,-3.7939,-3.7915,-3.7953,-3.802,-3.8039,-3.8057,-3.8163,-3.8142,-3.8175,-3.8232,-3.8274,-3.8286,-3.8297,-3.8334,-3.8348,-3.8183,-3.8183,-3.8184,0,-3.7773,-3.7837,-3.7827,-3.7876,-3.7897,-3.7869,-3.7925,-3.7943,-3.7979,-3.7994,-3.7969,-3.8052,-3.8067,-3.8144,-3.817,-3.8186,-3.8201,-3.8172,-3.8285,-3.8296,-3.8306,-3.8341,-3.8356,-3.8187,-3.8187,-3.8186,-3.8186,0,-3.7895,-3.794,-3.7982,-3.8017,-3.8043,-3.8096,-3.8094,-3.8122,-3.8111,-3.8115,-3.8178,-3.8195,-3.8234,-3.8252,-3.8242,-3.8327,-3.8313,-3.8287,-3.8242,-3.8325,-3.8358,-3.8371,-3.8193,-3.8191,-3.819,-3.8189,0,0,-3.8027,-3.8056,-3.8072,-3.8087,-3.8113,-3.8148,-3.8199,-3.8237,-3.8261,-3.8287,-3.833,-3.8387,-3.8363,-3.8384,-3.8377,-3.8414,-3.8496,-3.8383,-3.8383,-3.8403,-3.859,-3.8609,-3.8625,-3.8483,-3.8485,-3.8487,-3.8588,0,-3.8125,-3.8214,-3.8207,-3.8291,-3.8332,-3.8306,-3.8351,-3.8372,-3.8376,-3.8412,-3.8417,-3.8458,-3.8423,-3.8436,-3.8471,-3.8478,-3.8533,-3.8471,-3.8522,-3.8524,-3.8516,-3.8642,-3.8662,-3.8756,-3.8601,-3.8603,-3.8604,0,-3.8252,-3.8282,-3.8371,-3.8391,-3.8407,-3.8448,-3.8482,-3.8516,-3.854,-3.854,-3.8564,-3.855,-3.8602,-3.8556,-3.8628,-3.8586,-3.8606,-3.8613,-3.8616,-3.862,-3.8569,-3.8649,-3.8786,-3.88,-3.8625,-3.8623,-3.8622,0,-3.8338,-3.8401,-3.8462,-3.8476,-3.8501,-3.853,-3.8542,-3.8563,-3.8586,-3.8616,-3.8631,-3.8667,-3.8687,-3.8715,-3.8711,-3.8678,-3.8784,-3.8738,-3.8786,-3.8786,-3.8808,-3.8807,-3.895,-3.8823,-3.8823,-3.8823,-3.8822,0,-3.8449,-3.8504,-3.8501,-3.8538,-3.8599,-3.859,-3.8651,-3.8659,-3.8678,-3.8717,-3.8697,-3.8734,-3.8727,-3.8764,-3.8762,-3.8821,-3.883,-3.8832,-3.883,-3.8833,-3.8833,-3.8846,-3.8839,-3.8826,-3.8826,-3.8825,-3.8824,0,-3.8555,-3.8555,-3.862,-3.8638,-3.8644,-3.8688,-3.8704,-3.8739,-3.8743,-3.8792,-3.8803,-3.8808,-3.885,-3.885,-3.8898,-3.8896,-3.8969,-3.896,-3.8961,-3.8959,-3.9006,-3.9002,-3.9162,-3.9183,-3.9043,-3.9045,-3.9046,0,-3.8625,-3.8666,-3.8689,-3.8714,-3.8727,-3.8767,-3.879,-3.8784,-3.8809,-3.8839,-3.8871,-3.8912,-3.8943,-3.9012,-3.902,-3.9057,-3.9049,-3.9103,-3.9054,-3.9056,-3.9049,-3.9046,-3.905,-3.9112,-3.9114,-3.9115,-3.9116,0,-3.8749,-3.8747,-3.8782,-3.8817,-3.8845,-3.8873,-3.8898,-3.8919,-3.8915,-3.8945,-3.8988,-3.9013,-3.9062,-3.9102,-3.9138,-3.915,-3.9133,-3.9131,-3.9144,-3.9147,-3.9145,-3.9146,-3.8986,-3.9127,-3.9126,-3.9125,-3.9125,-3.9124,-3.8838,-3.8874,-3.8896,-3.8935,-3.8953,-3.8977,-3.9011,-3.9019,-3.9054,-3.9094,-3.9088,-3.9136,-3.9158,-3.9204,-3.922,-3.9257,-3.9238,-3.9257,-3.9262,-3.9266,-3.9271,-3.914,-3.9264,-3.9263,-3.9263,-3.9263,-3.9263,0,-3.8961,-3.8973,-3.901,-3.9045,-3.9076,-3.9057,-3.9084,-3.9112,-3.9154,-3.9176,-3.9208,-3.9257,-3.9297,-3.9308,-3.9346,-3.9374,-3.9367,-3.9384,-3.9381,-3.9384,-3.9286,-3.9271,-3.9389,-3.9389,-3.9389,-3.9389,-3.9389,-3.9389,-3.9028,-3.9087,-3.9088,-3.9156,-3.9168,-3.9215,-3.9232,-3.9254,-3.9272,-3.9327,-3.936,-3.9367,-3.9385,-3.9424,-3.9459,-3.9462,-3.9476,-3.9496,-3.9496,-3.9404,-3.9391,-3.9379,-3.9364,-3.95,-3.95,-3.959,-3.9591,-3.9592]},{"header":{"parameterUnit":"m.s-1","parameterCategory":1,"la1":30.2991,"la2":30.254,"lo1":-89.0895,"lo2":-89.0444,"dy":0.0017,"dx":0.0017,"nx":28,"ny":28,"refTime":"2025-12-23T03:00:00:Z","depth":0,"parameterNumber":3,"parameterNumberName":"V-component_of_WINDS"},"data":[0,0,0,0,0,0,0,0,0,0,0,0,0,0,0,0,0,0,0,0,0,0,0,0,0,0,0,0,0,0,0,0,0,0,0,0,0,0,0,0,0,0,0,0,0,0,0,0,0,0,0,0,0,0,0,0,0,0,0.59,0.5901,0,0.5919,0.5919,0.5919,0.5964,0.5964,0.5965,0.5966,0.5982,0.5982,0.5981,0,0,0,0,0,0,0,0,0,0,0,0,0,0.5902,0.5901,0.59,0.5901,0.5901,0.5919,0.5919,0.5919,0.5963,0.5964,0.5966,0.5967,0.5982,0.5982,0.5981,0,0,0,0,0,0,0,0,0,0,0,0,0,0.5908,0.5901,0.59,0.5925,0.5927,0.5919,0.5919,0.5919,0.5963,0.5965,0.5966,0.5967,0.5983,0.5982,0.5981,0.5949,0,0,0.5979,0.5979,0,0,0,0,0,0,0,0,0.5908,0.5908,0.5921,0.5923,0.5926,0.594,0.5925,0.5929,0.5963,0.5949,0.5966,0.5968,0.5967,0.5968,0.5968,0.595,0.595,0.5979,0.5979,0.5978,0.5978,0,0,0,0,0,0,0,0.5907,0.5908,0.5908,0.5921,0.5924,0.5935,0.5937,0.5926,0.595,0.5951,0.5954,0.5956,0.5969,0.5968,0.5969,0.5951,0.5979,0.5979,0.5978,0.5978,0.5909,0.5907,0,0,0,0,0,0,0.5904,0.5907,0.5907,0.5908,0.592,0.5933,0.5936,0.5934,0.595,0.5954,0.5955,0.5958,0.5969,0.5969,0.5969,0.5934,0.5978,0.5978,0.5977,0.591,0.5908,0.5907,0,0,0,0,0,0,0.5904,0.5903,0.5906,0.5909,0.591,0.5932,0.5929,0.5934,0.5934,0.5953,0.5957,0.595,0.597,0.597,0.5954,0.5935,0.5977,0.5977,0.5912,0.5909,0.5907,0.5862,0,0,0,0,0,0,0.5903,0.5903,0.5891,0.5908,0.5909,0.5891,0.5928,0.5933,0.5933,0.5937,0.595,0.5954,0.5971,0.5955,0.5954,0.5935,0.5976,0.5914,0.5911,0.5908,0.5865,0.5858,0.5853,0,0,0,0,0,0.5903,0.5877,0.589,0.589,0.5895,0.589,0.5891,0.5912,0.5931,0.592,0.5932,0.5953,0.5937,0.5953,0.5952,0.5932,0.5915,0.5912,0.5908,0.5868,0.586,0.5853,0,0,0,0,0,0,0.5856,0.5879,0.5895,0.5873,0.5879,0.5898,0.5883,0.5903,0.5903,0.5907,0.5933,0.5935,0.5916,0.5922,0.594,0.5903,0.593,0.5926,0.5899,0.5892,0.5885,0.5884,0.5976,0,0,0,0,0,0.5843,0.5837,0.5858,0.5837,0.5839,0.5861,0.5859,0.5875,0.5882,0.5885,0.5896,0.5902,0.5898,0.5895,0.5893,0.5866,0.587,0.5853,0.5846,0.5841,0.5838,0.5825,0.5818,0.5896,0.5896,0.5896,0,0,0.5816,0.5828,0.5823,0.5827,0.5834,0.5828,0.5863,0.5854,0.5849,0.5883,0.587,0.5878,0.5886,0.5865,0.5856,0.587,0.5817,0.5837,0.5833,0.5832,0.5821,0.5814,0.5807,0.5894,0.5894,0.5895,0,0,0.5764,0.5772,0.5756,0.5763,0.5773,0.5788,0.5784,0.58,0.5807,0.5794,0.582,0.5814,0.5807,0.5812,0.5814,0.5765,0.5785,0.5763,0.5731,0.5718,0.5712,0.5707,0.569,0.5684,0.576,0.576,0.576,0,0.5729,0.5721,0.5745,0.5735,0.5737,0.5769,0.5753,0.5758,0.5766,0.5766,0.5782,0.5775,0.5782,0.5764,0.5752,0.5752,0.5748,0.5762,0.5711,0.5706,0.5701,0.5686,0.5679,0.5757,0.5757,0.5758,0.5758,0,0.5677,0.5671,0.5657,0.5666,0.5666,0.5653,0.5675,0.5672,0.5688,0.5701,0.5688,0.5698,0.5699,0.5696,0.5711,0.5679,0.5688,0.5707,0.5734,0.5691,0.5677,0.5671,0.5753,0.5754,0.5755,0.5756,0,0,0.5595,0.5619,0.5614,0.5619,0.5633,0.5629,0.5617,0.5619,0.5616,0.5621,0.5613,0.5607,0.5625,0.5627,0.5643,0.5632,0.5594,0.5653,0.5653,0.5642,0.556,0.5546,0.5539,0.5607,0.5606,0.5605,0.556,0,0.5547,0.553,0.5552,0.553,0.5525,0.5556,0.5546,0.5553,0.5565,0.5563,0.5575,0.5571,0.5595,0.5597,0.5587,0.56,0.5578,0.5604,0.5599,0.5598,0.5596,0.5531,0.5516,0.5473,0.5554,0.5554,0.5553,0,0.5488,0.5492,0.5469,0.5487,0.5485,0.5476,0.5481,0.5478,0.5487,0.5496,0.5499,0.5519,0.5509,0.5535,0.5522,0.5539,0.5538,0.5544,0.5543,0.5544,0.5573,0.5531,0.546,0.5454,0.5544,0.5545,0.5545,0,0.5431,0.5431,0.5418,0.5421,0.544,0.5433,0.5441,0.5452,0.5452,0.5456,0.5456,0.5458,0.5459,0.546,0.548,0.5497,0.5464,0.5492,0.5471,0.5471,0.5463,0.5463,0.5392,0.5462,0.5462,0.5462,0.5462,0,0.5375,0.536,0.5393,0.5385,0.5369,0.5395,0.5379,0.5389,0.5399,0.5393,0.542,0.5414,0.544,0.5437,0.5452,0.5439,0.5439,0.5447,0.5451,0.5445,0.5444,0.5445,0.5448,0.546,0.546,0.5461,0.5461,0,0.5309,0.533,0.5318,0.5338,0.5343,0.5331,0.5348,0.5341,0.5355,0.5348,0.5348,0.5369,0.5367,0.5387,0.5388,0.5399,0.5378,0.5387,0.5375,0.5379,0.5357,0.5359,0.5284,0.5276,0.535,0.535,0.5349,0,0.5272,0.5262,0.5282,0.528,0.5287,0.5284,0.5285,0.531,0.531,0.5321,0.5313,0.5313,0.5315,0.5309,0.5325,0.5326,0.5336,0.531,0.5336,0.533,0.5336,0.5337,0.5336,0.5304,0.5303,0.5302,0.5302,0,0.5205,0.5216,0.5217,0.5222,0.5223,0.5227,0.5233,0.5231,0.5258,0.5256,0.5255,0.5256,0.5258,0.5258,0.5263,0.527,0.529,0.5293,0.5289,0.5282,0.5276,0.528,0.5361,0.5295,0.5295,0.5296,0.5296,0.5297,0.5153,0.5146,0.5159,0.5159,0.5167,0.5172,0.5168,0.5182,0.5181,0.5186,0.5201,0.5197,0.5207,0.5216,0.5221,0.5219,0.5231,0.5224,0.5223,0.5221,0.5218,0.5276,0.5219,0.522,0.522,0.522,0.522,0,0.5088,0.5098,0.5098,0.5107,0.5107,0.5127,0.5136,0.5134,0.5131,0.514,0.5141,0.514,0.5141,0.5157,0.5159,0.5154,0.5163,0.5154,0.5154,0.5156,0.5206,0.521,0.5146,0.5146,0.5146,0.5146,0.5146,0.5146,0.5054,0.5043,0.5056,0.5049,0.506,0.5057,0.506,0.5066,0.5073,0.5071,0.5072,0.5083,0.5095,0.5098,0.5099,0.5104,0.5104,0.5091,0.5099,0.5145,0.5152,0.5159,0.5163,0.5091,0.5091,0.505,0.505,0.5049]}]]